Flag for Germany Weather past 2 weeks in Augsburg, Bavaria, Germany

Now
64 °F

Sunny.


Feels Like: 64 °F
Forecast: 58 / 85 °F
Wind: 2 mph from North

Location: Augsburg Airport

Current Time: Aug 3, 2015 at 8:51:04 AM

Latest Report: Aug 3, 2015 at 8:20 AM


Visibility: 10 mi

Pressure: 30.12 "Hg

Humidity: 68%

Dew point: 54 °F

Location of AugsburgLocation

Historic Weather in Augsburg — Graph

°F

Augsburg temperature yesterday

Maximum temperature yesterday: 79 °F (at 4:20 PM)
Minimum temperature yesterday: 64 °F (at 8:50 AM)
Average temperature yesterday: 74 °F

Past Weeks' High & Low Weather Summary

 TemperatureHumidityPressure
High97 °F (Jul 22, 4:20 PM)100% (Jul 20, 5:50 AM)30.15 "Hg (Jul 20, 5:50 AM)
Low43 °F (Jul 30, 5:50 AM)20% (Jul 22, 4:20 PM)29.74 "Hg (Jul 24, 6:50 PM)
Average71 °F53%29.95 "Hg
* Reported Jul 19 8:50 AM — Aug 3 7:20 AM, Augsburg, Weather by CustomWeather, © 2015

Note: Actual official high and low records may vary slightly from our data, if they occured in-between our weather recording intervals... More about our weather records

Advertising

Augsburg weather history for previous 24 hours

 ConditionsComfort  
Time TempWeatherWind HumidityBarometerVisibility
7:20 AM
Mon, Aug 3
59 °FSunny.2 mph88%30.09 "Hg10 mi
6:50 AM54 °FClear.3 mph94%30.09 "Hg10 mi
8:50 PM
Sun, Aug 2
70 °FSunny.6 mph50%30.09 "Hg10 mi
8:20 PM73 °FSunny.6 mph44%30.09 "Hg10 mi
7:50 PM75 °FSunny.6 mph41%30.09 "Hg10 mi
7:20 PM77 °FSunny.6 mph39%30.09 "Hg10 mi
6:50 PM77 °FSunny.6 mph36%30.09 "Hg10 mi
6:20 PM79 °FPassing clouds.5 mph34%30.09 "HgN/A
5:50 PM79 °FPassing clouds.6 mph34%30.09 "HgN/A
5:20 PM79 °FSunny.7 mph34%30.09 "Hg10 mi
4:50 PM79 °FPassing clouds.6 mph34%30.09 "HgN/A
4:20 PM79 °FPassing clouds.6 mph34%30.09 "HgN/A
3:50 PM77 °FPassing clouds.5 mph36%30.12 "HgN/A
3:20 PM77 °FPassing clouds.8 mph39%30.12 "HgN/A
2:50 PM77 °FPassing clouds.6 mph34%30.12 "HgN/A
2:20 PM75 °FSunny.9 mph41%30.12 "Hg10 mi
1:50 PM75 °FSunny.3 mph44%30.12 "Hg10 mi
1:20 PM75 °FPassing clouds.3 mph41%30.15 "HgN/A
12:50 PM73 °FPassing clouds.6 mph47%30.15 "HgN/A
12:20 PM73 °FSunny.3 mph47%30.15 "Hg10 mi
11:50 AM72 °FSunny.3 mph50%30.15 "Hg10 mi
11:20 AM68 °FPassing clouds.3 mph60%30.15 "HgN/A
10:50 AM68 °FSunny.2 mph60%30.15 "Hg10 mi
10:20 AM68 °FPassing clouds.3 mph60%30.12 "HgN/A
9:50 AM66 °FPassing clouds.5 mph64%30.12 "HgN/A
9:20 AM64 °FPassing clouds.3 mph68%30.12 "HgN/A
8:50 AM64 °FPassing clouds.5 mph73%30.12 "HgN/A
Weather by CustomWeather, © 2015

See weather overviewHow to use our weather pages